This is the latest recevied weather packets stored in our database for station/object MKSRDG. If no packets are shown the sender has not sent any weather packets the latest 10 day(s).
| Time | Temp. | Humidity | Pressure | Rain* | Wind** | Luminosity | Snow |
|---|---|---|---|---|---|---|---|
| 1777730995 | 7.78° C | 95% | 1014.6 hPa | 0 mm | - | 42 W/m² | - |
| 1777730095 | 7.22° C | 95% | 1014.5 hPa | 0 mm | - | 28 W/m² | - |
| 1777729195 | 7.78° C | 95% | 1014.4 hPa | 0 mm | - | 12 W/m² | - |
| 1777728295 | 7.78° C | 95% | 1014.4 hPa | 0 mm | - | 7 W/m² | - |
| 1777727395 | 7.78° C | 95% | 1014.3 hPa | 0 mm | - | 0 W/m² | - |
| 1777726495 | 7.78° C | 95% | 1014.4 hPa | 0 mm | - | 0 W/m² | - |
| 1777725595 | 7.78° C | 94% | 1014.5 hPa | 0 mm | - | 0 W/m² | - |
| 1777724695 | 7.78° C | 94% | 1014.4 hPa | 0 mm | - | 0 W/m² | - |
| 1777723795 | 7.78° C | 94% | 1014.4 hPa | 0 mm | - | 0 W/m² | - |
| 1777722895 | 8.33° C | 94% | 1014.4 hPa | 0 mm | - | 0 W/m² | - |
| 1777721995 | 8.33° C | 94% | 1014.5 hPa | 0 mm | - | 0 W/m² | - |
| 1777721095 | 7.78° C | 94% | 1014.5 hPa | 0 mm | - | 0 W/m² | - |
| 1777720195 | 8.33° C | 94% | 1014.5 hPa | 0 mm | - | 0 W/m² | - |
| 1777719295 | 8.33° C | 94% | 1014.6 hPa | 0 mm | - | 0 W/m² | - |
| 1777718395 | 8.33° C | 94% | 1014.6 hPa | 0 mm | - | 0 W/m² | - |
| 1777717495 | 8.33° C | 94% | 1014.6 hPa | 0 mm | - | 0 W/m² | - |
| 1777716595 | 8.33° C | 94% | 1014.8 hPa | 0 mm | - | 0 W/m² | - |
| 1777715695 | 8.89° C | 94% | 1014.7 hPa | 0 mm | - | 0 W/m² | - |
| 1777714795 | 8.89° C | 93% | 1014.5 hPa | 0 mm | - | 0 W/m² | - |
| 1777713895 | 8.89° C | 93% | 1014.9 hPa | 0 mm | - | 0 W/m² | - |
| 1777712995 | 8.89° C | 93% | 1014.8 hPa | 0 mm | - | 0 W/m² | - |
| 1777712095 | 8.89° C | 93% | 1015 hPa | 0 mm | - | 0 W/m² | - |
| 1777711195 | 8.89° C | 92% | 1015 hPa | 0 mm | - | 0 W/m² | - |
| 1777710295 | 9.44° C | 92% | 1014.7 hPa | 0 mm | - | 0 W/m² | - |
| 1777709395 | 9.44° C | 91% | 1014.9 hPa | 0 mm | - | 0 W/m² | - |
* Rain latest hour (hover to see other rain measurements)
** Current wind speed in m/s (hover to see current wind gust speed)